TimeCDT,TemperatureF,Dew PointF,Humidity,Sea Level PressureIn,VisibilityMPH,Wind Direction,Wind SpeedMPH,Gust SpeedMPH,PrecipitationIn,Events,Conditions,WindDirDegrees,DateUTC
12:53 AM,51.1,28.9,43,30.16,10.0,NNE,9.2,-,N/A,,Mostly Cloudy,20,2013-03-20 05:53:00
1:53 AM,50.0,28.0,43,30.19,10.0,NNE,6.9,-,N/A,,Partly Cloudy,20,2013-03-20 06:53:00
2:53 AM,48.9,30.0,48,30.18,10.0,NNE,4.6,-,N/A,,Clear,20,2013-03-20 07:53:00
3:53 AM,48.0,28.9,48,30.19,10.0,North,5.8,-,N/A,,Clear,10,2013-03-20 08:53:00
4:53 AM,46.0,28.9,51,30.18,10.0,NNE,4.6,-,N/A,,Clear,20,2013-03-20 09:53:00
5:53 AM,44.1,32.0,63,30.20,10.0,Calm,Calm,-,N/A,,Clear,0,2013-03-20 10:53:00
6:53 AM,41.0,32.0,70,30.21,10.0,NNW,5.8,-,N/A,,Clear,340,2013-03-20 11:53:00
7:53 AM,41.0,33.1,73,30.24,10.0,NNW,6.9,-,N/A,,Clear,340,2013-03-20 12:53:00
8:53 AM,46.0,30.9,56,30.27,10.0,North,8.1,-,N/A,,Clear,350,2013-03-20 13:53:00
9:53 AM,51.1,30.0,44,30.28,10.0,North,5.8,-,N/A,,Clear,350,2013-03-20 14:53:00
10:53 AM,55.9,24.1,29,30.29,10.0,North,10.4,-,N/A,,Clear,10,2013-03-20 15:53:00
11:53 AM,59.0,25.0,27,30.27,10.0,North,6.9,-,N/A,,Clear,350,2013-03-20 16:53:00
12:53 PM,60.1,24.1,25,30.24,10.0,North,5.8,17.3,N/A,,Clear,350,2013-03-20 17:53:00
1:53 PM,62.1,24.1,23,30.22,10.0,North,15.0,23.0,N/A,,Clear,350,2013-03-20 18:53:00
2:53 PM,63.0,24.1,23,30.17,10.0,North,12.7,-,N/A,,Clear,350,2013-03-20 19:53:00
3:53 PM,64.0,24.1,22,30.15,10.0,NNW,12.7,19.6,N/A,,Clear,340,2013-03-20 20:53:00
4:53 PM,63.0,26.1,25,30.13,10.0,NNW,11.5,18.4,N/A,,Clear,330,2013-03-20 21:53:00
5:53 PM,62.1,26.1,25,30.11,10.0,North,8.1,-,N/A,,Clear,350,2013-03-20 22:53:00
6:53 PM,60.1,26.1,27,30.11,10.0,NNW,5.8,-,N/A,,Clear,340,2013-03-20 23:53:00
7:53 PM,50.0,32.0,50,30.11,10.0,Calm,Calm,-,N/A,,Clear,0,2013-03-21 00:53:00
8:53 PM,44.1,34.0,68,30.11,10.0,North,4.6,-,N/A,,Clear,350,2013-03-21 01:53:00
9:53 PM,45.0,32.0,60,30.10,10.0,Calm,Calm,-,N/A,,Clear,0,2013-03-21 02:53:00
10:53 PM,42.1,33.1,70,30.10,10.0,Calm,Calm,-,N/A,,Clear,0,2013-03-21 03:53:00
11:53 PM,42.1,33.1,70,30.10,10.0,North,4.6,-,N/A,,Clear,360,2013-03-21 04:53:00